Year,Month,Day,Hour,Minute,Value (Times are PST for temperature in C)
2014,08,24,00,00,14.20
2014,08,24,00,01,14.20
2014,08,24,00,02,14.20
2014,08,24,00,03,14.20
2014,08,24,00,04,14.10
2014,08,24,00,05,14.10
2014,08,24,00,06,14.10
2014,08,24,00,07,14.10
2014,08,24,00,08,14.10
2014,08,24,00,09,14.10
2014,08,24,00,10,14.10
2014,08,24,00,11,14.10
2014,08,24,00,12,14.10
2014,08,24,00,13,14.10
2014,08,24,00,14,14.00
2014,08,24,00,15,14.00
2014,08,24,00,16,14.00
2014,08,24,00,17,14.00
2014,08,24,00,18,14.00
2014,08,24,00,19,13.90
2014,08,24,00,20,13.90
2014,08,24,00,21,13.90
2014,08,24,00,22,13.90
2014,08,24,00,23,13.90
2014,08,24,00,24,13.90
2014,08,24,00,25,13.90
2014,08,24,00,26,13.90
2014,08,24,00,27,13.90
2014,08,24,00,28,13.90
2014,08,24,00,29,13.90
2014,08,24,00,30,13.90
2014,08,24,00,31,13.90
2014,08,24,00,32,13.90
2014,08,24,00,33,13.90
2014,08,24,00,34,13.90
2014,08,24,00,35,13.90
2014,08,24,00,36,13.90
2014,08,24,00,37,13.90
2014,08,24,00,38,13.90
2014,08,24,00,39,13.90
2014,08,24,00,40,13.90
2014,08,24,00,41,13.90
2014,08,24,00,42,13.80
2014,08,24,00,43,13.80
2014,08,24,00,44,13.80
2014,08,24,00,45,13.80
2014,08,24,00,46,13.80
2014,08,24,00,47,13.80
2014,08,24,00,48,13.80
2014,08,24,00,49,13.70
2014,08,24,00,50,13.70
2014,08,24,00,51,13.70
2014,08,24,00,52,13.70
2014,08,24,00,53,13.70
2014,08,24,00,54,13.70
2014,08,24,00,55,13.70
2014,08,24,00,56,13.70
2014,08,24,00,57,13.70
2014,08,24,00,58,13.70
2014,08,24,00,59,13.70
2014,08,24,01,00,13.70
2014,08,24,01,01,13.70
2014,08,24,01,02,13.70
2014,08,24,01,03,13.80
2014,08,24,01,04,13.80
2014,08,24,01,05,13.80
2014,08,24,01,06,13.80
2014,08,24,01,07,13.80
2014,08,24,01,08,13.80
2014,08,24,01,09,13.80
2014,08,24,01,10,13.80
2014,08,24,01,11,13.80
2014,08,24,01,12,13.80
2014,08,24,01,13,13.70
2014,08,24,01,14,13.70
2014,08,24,01,15,13.70
2014,08,24,01,16,13.70
2014,08,24,01,17,13.70
2014,08,24,01,18,13.70
2014,08,24,01,19,13.70
2014,08,24,01,20,13.70
2014,08,24,01,21,13.70
2014,08,24,01,22,13.80
2014,08,24,01,23,13.70
2014,08,24,01,24,13.70
2014,08,24,01,25,13.70
2014,08,24,01,26,13.70
2014,08,24,01,27,13.80
2014,08,24,01,28,13.80
2014,08,24,01,29,13.80
2014,08,24,01,30,13.80
2014,08,24,01,31,13.80
2014,08,24,01,32,13.80
2014,08,24,01,33,13.80
2014,08,24,01,34,13.80
2014,08,24,01,35,13.80
2014,08,24,01,36,13.80
2014,08,24,01,37,13.80
2014,08,24,01,38,13.80
2014,08,24,01,39,13.80
2014,08,24,01,40,13.80
2014,08,24,01,41,13.80
2014,08,24,01,42,13.80
2014,08,24,01,43,13.80
2014,08,24,01,44,13.80
2014,08,24,01,45,13.80
2014,08,24,01,46,13.90
2014,08,24,01,47,13.90
2014,08,24,01,48,13.90
2014,08,24,01,49,13.90
2014,08,24,01,50,13.90
2014,08,24,01,51,13.90
2014,08,24,01,52,13.90
2014,08,24,01,53,13.90
2014,08,24,01,54,13.90
2014,08,24,01,55,13.90
2014,08,24,01,56,13.90
2014,08,24,01,57,13.90
2014,08,24,01,58,13.90
2014,08,24,01,59,13.90
2014,08,24,02,00,13.90
2014,08,24,02,01,13.90
2014,08,24,02,02,13.90
2014,08,24,02,03,13.90
2014,08,24,02,04,13.90
2014,08,24,02,05,13.90
2014,08,24,02,06,13.90
2014,08,24,02,07,13.90
2014,08,24,02,08,13.90
2014,08,24,02,09,13.90
2014,08,24,02,10,13.90
2014,08,24,02,11,13.90
2014,08,24,02,12,13.90
2014,08,24,02,13,13.90
2014,08,24,02,14,13.90
2014,08,24,02,15,13.90
2014,08,24,02,16,14.00
2014,08,24,02,17,14.00
2014,08,24,02,18,14.00
2014,08,24,02,19,14.00
2014,08,24,02,20,14.00
2014,08,24,02,21,14.10
2014,08,24,02,22,14.10
2014,08,24,02,23,14.10
2014,08,24,02,24,14.10
2014,08,24,02,25,14.10
2014,08,24,02,26,14.10
2014,08,24,02,27,14.10
2014,08,24,02,28,14.10
2014,08,24,02,29,14.10
2014,08,24,02,30,14.10
2014,08,24,02,31,14.00
2014,08,24,02,32,14.00
2014,08,24,02,33,14.00
2014,08,24,02,34,14.00
2014,08,24,02,35,14.00
2014,08,24,02,36,13.90
2014,08,24,02,37,13.90
2014,08,24,02,38,13.90
2014,08,24,02,39,13.90
2014,08,24,02,40,13.90
2014,08,24,02,41,13.90
2014,08,24,02,42,13.90
2014,08,24,02,43,13.90
2014,08,24,02,44,13.90
2014,08,24,02,45,13.80
2014,08,24,02,46,13.80
2014,08,24,02,47,13.80
2014,08,24,02,48,13.80
2014,08,24,02,49,13.90
2014,08,24,02,50,13.80
2014,08,24,02,51,13.80
2014,08,24,02,52,13.80
2014,08,24,02,53,13.80
2014,08,24,02,54,13.80
2014,08,24,02,55,13.80
2014,08,24,02,56,13.80
2014,08,24,02,57,13.80
2014,08,24,02,58,13.70
2014,08,24,02,59,13.70
2014,08,24,03,00,13.70
2014,08,24,03,01,13.70
2014,08,24,03,02,13.70
2014,08,24,03,03,13.70
2014,08,24,03,04,13.70
2014,08,24,03,05,13.60
2014,08,24,03,06,13.60
2014,08,24,03,07,13.60
2014,08,24,03,08,13.60
2014,08,24,03,09,13.60
2014,08,24,03,10,13.60
2014,08,24,03,11,13.60
2014,08,24,03,12,13.50
2014,08,24,03,13,13.50
2014,08,24,03,14,13.50
2014,08,24,03,15,13.50
2014,08,24,03,16,13.40
2014,08,24,03,17,13.40
2014,08,24,03,18,13.40
2014,08,24,03,19,13.40
2014,08,24,03,20,13.30
2014,08,24,03,21,13.30
2014,08,24,03,22,13.30
2014,08,24,03,23,13.30
2014,08,24,03,24,13.30
2014,08,24,03,25,13.30
2014,08,24,03,26,13.30
2014,08,24,03,27,13.30
2014,08,24,03,28,13.30
2014,08,24,03,29,13.30
2014,08,24,03,30,13.30
2014,08,24,03,31,13.20
2014,08,24,03,32,13.20
2014,08,24,03,33,13.20
2014,08,24,03,34,13.20
2014,08,24,03,35,13.20
2014,08,24,03,36,13.20
2014,08,24,03,37,13.20
2014,08,24,03,38,13.10
2014,08,24,03,39,13.10
2014,08,24,03,40,13.10
2014,08,24,03,41,13.10
2014,08,24,03,42,13.10
2014,08,24,03,43,13.00
2014,08,24,03,44,13.00
2014,08,24,03,45,13.00
2014,08,24,03,46,13.00
2014,08,24,03,47,12.90
2014,08,24,03,48,12.90
2014,08,24,03,49,12.90
2014,08,24,03,50,12.90
2014,08,24,03,51,12.90
2014,08,24,03,52,12.80
2014,08,24,03,53,12.80
2014,08,24,03,54,12.80
2014,08,24,03,55,12.80
2014,08,24,03,56,12.80
2014,08,24,03,57,12.80
2014,08,24,03,58,12.80
2014,08,24,03,59,12.80
2014,08,24,04,00,12.90
2014,08,24,04,01,12.90
2014,08,24,04,02,12.90
2014,08,24,04,03,12.90
2014,08,24,04,04,12.90
2014,08,24,04,05,12.80
2014,08,24,04,06,12.80
2014,08,24,04,07,12.80
2014,08,24,04,08,12.80
2014,08,24,04,09,12.80
2014,08,24,04,10,12.70
2014,08,24,04,11,12.70
2014,08,24,04,12,12.70
2014,08,24,04,13,12.70
2014,08,24,04,14,12.70
2014,08,24,04,15,12.70
2014,08,24,04,16,12.70
2014,08,24,04,17,12.70
2014,08,24,04,18,12.70
2014,08,24,04,19,12.70
2014,08,24,04,20,12.70
2014,08,24,04,21,12.70
2014,08,24,04,22,12.70
2014,08,24,04,23,12.70
2014,08,24,04,24,12.70
2014,08,24,04,25,12.70
2014,08,24,04,26,12.70
2014,08,24,04,27,12.80
2014,08,24,04,28,12.80
2014,08,24,04,29,12.80
2014,08,24,04,30,12.80
2014,08,24,04,31,12.70
2014,08,24,04,32,12.70
2014,08,24,04,33,12.70
2014,08,24,04,34,12.70
2014,08,24,04,35,12.70
2014,08,24,04,36,12.60
2014,08,24,04,37,12.60
2014,08,24,04,38,12.60
2014,08,24,04,39,12.60
2014,08,24,04,40,12.50
2014,08,24,04,41,12.50
2014,08,24,04,42,12.40
2014,08,24,04,43,12.40
2014,08,24,04,44,12.40
2014,08,24,04,45,12.40
2014,08,24,04,46,12.30
2014,08,24,04,47,12.30
2014,08,24,04,48,12.30
2014,08,24,04,49,12.30
2014,08,24,04,50,12.30
2014,08,24,04,51,12.30
2014,08,24,04,52,12.30
2014,08,24,04,53,12.30
2014,08,24,04,54,12.30
2014,08,24,04,55,12.30
2014,08,24,04,56,12.30
2014,08,24,04,57,12.30
2014,08,24,04,58,12.30
2014,08,24,04,59,12.30
2014,08,24,05,00,12.30
2014,08,24,05,01,12.30
2014,08,24,05,02,12.30
2014,08,24,05,03,12.30
2014,08,24,05,04,12.30
2014,08,24,05,05,12.30
2014,08,24,05,06,12.20
2014,08,24,05,07,12.20
2014,08,24,05,08,12.20
2014,08,24,05,09,12.20
2014,08,24,05,10,12.20
2014,08,24,05,11,12.20
2014,08,24,05,12,12.10
2014,08,24,05,13,12.10
2014,08,24,05,14,12.10
2014,08,24,05,15,12.10
2014,08,24,05,16,12.10
2014,08,24,05,17,12.10
2014,08,24,05,18,12.10
2014,08,24,05,19,12.10
2014,08,24,05,20,12.10
2014,08,24,05,21,12.10
2014,08,24,05,22,12.10
2014,08,24,05,23,12.10
2014,08,24,05,24,12.10
2014,08,24,05,25,12.10
2014,08,24,05,26,12.10
2014,08,24,05,27,12.00
2014,08,24,05,28,12.00
2014,08,24,05,29,12.00
2014,08,24,05,30,11.90
2014,08,24,05,31,11.90
2014,08,24,05,32,11.90
2014,08,24,05,33,11.90
2014,08,24,05,34,11.90
2014,08,24,05,35,11.80
2014,08,24,05,36,11.80
2014,08,24,05,37,11.80
2014,08,24,05,38,11.80
2014,08,24,05,39,11.80
2014,08,24,05,40,11.80
2014,08,24,05,41,11.80
2014,08,24,05,42,11.80
2014,08,24,05,43,11.80
2014,08,24,05,44,11.70
2014,08,24,05,45,11.80
2014,08,24,05,46,11.80
2014,08,24,05,47,11.80
2014,08,24,05,48,11.80
2014,08,24,05,49,11.80
2014,08,24,05,50,11.80
2014,08,24,05,51,11.80
2014,08,24,05,52,11.80
2014,08,24,05,53,11.90
2014,08,24,05,54,11.90
2014,08,24,05,55,11.90
2014,08,24,05,56,11.90
2014,08,24,05,57,11.90
2014,08,24,05,58,11.90
2014,08,24,05,59,11.90
2014,08,24,06,00,11.90
2014,08,24,06,01,11.90
2014,08,24,06,02,11.90
2014,08,24,06,03,11.90
2014,08,24,06,04,11.80
2014,08,24,06,05,11.80
2014,08,24,06,06,11.80
2014,08,24,06,07,11.80
2014,08,24,06,08,11.80
2014,08,24,06,09,11.80
2014,08,24,06,10,11.80
2014,08,24,06,11,11.80
2014,08,24,06,12,11.80
2014,08,24,06,13,11.80
2014,08,24,06,14,11.80
2014,08,24,06,15,11.80
2014,08,24,06,16,11.80
2014,08,24,06,17,11.80
2014,08,24,06,18,11.80
2014,08,24,06,19,11.80
2014,08,24,06,20,11.80
2014,08,24,06,21,11.80
2014,08,24,06,22,11.80
2014,08,24,06,23,11.80
2014,08,24,06,24,11.80
2014,08,24,06,25,11.80
2014,08,24,06,26,11.80
2014,08,24,06,27,11.90
2014,08,24,06,28,11.90
2014,08,24,06,29,11.90
2014,08,24,06,30,12.00
2014,08,24,06,31,12.00
2014,08,24,06,32,12.00
2014,08,24,06,33,11.90
2014,08,24,06,34,11.90
2014,08,24,06,35,11.90
2014,08,24,06,36,11.90
2014,08,24,06,37,11.90
2014,08,24,06,38,11.80
2014,08,24,06,39,11.80
2014,08,24,06,40,11.80
2014,08,24,06,41,11.80
2014,08,24,06,42,11.80
2014,08,24,06,43,11.80
2014,08,24,06,44,11.90
2014,08,24,06,45,11.90
2014,08,24,06,46,11.90
2014,08,24,06,47,11.90
2014,08,24,06,48,11.90
2014,08,24,06,49,11.90
2014,08,24,06,50,11.90
2014,08,24,06,51,11.90
2014,08,24,06,52,11.90
2014,08,24,06,53,11.90
2014,08,24,06,54,11.90
2014,08,24,06,55,11.90
2014,08,24,06,56,11.80
2014,08,24,06,57,11.80
2014,08,24,06,58,11.80
2014,08,24,06,59,11.80
2014,08,24,07,00,11.90
2014,08,24,07,01,11.90
2014,08,24,07,02,11.90
2014,08,24,07,03,11.90
2014,08,24,07,04,12.00
2014,08,24,07,05,12.00
2014,08,24,07,06,12.00
2014,08,24,07,07,12.00
2014,08,24,07,08,12.10
2014,08,24,07,09,12.10
2014,08,24,07,10,12.10
2014,08,24,07,11,12.10
2014,08,24,07,12,12.10
2014,08,24,07,13,12.10
2014,08,24,07,14,12.10
2014,08,24,07,15,12.10
2014,08,24,07,16,12.10
2014,08,24,07,17,12.20
2014,08,24,07,18,12.20
2014,08,24,07,19,12.20
2014,08,24,07,20,12.20
2014,08,24,07,21,12.20
2014,08,24,07,22,12.30
2014,08,24,07,23,12.30
2014,08,24,07,24,12.30
2014,08,24,07,25,12.40
2014,08,24,07,26,12.40
2014,08,24,07,27,12.40
2014,08,24,07,28,12.50
2014,08,24,07,29,12.50
2014,08,24,07,30,12.60
2014,08,24,07,31,12.60
2014,08,24,07,32,12.70
2014,08,24,07,33,12.70
2014,08,24,07,34,12.70
2014,08,24,07,35,12.80
2014,08,24,07,36,12.80
2014,08,24,07,37,12.80
2014,08,24,07,38,12.80
2014,08,24,07,39,12.90
2014,08,24,07,40,12.90
2014,08,24,07,41,12.90
2014,08,24,07,42,13.00
2014,08,24,07,43,13.00
2014,08,24,07,44,13.10
2014,08,24,07,45,13.10
2014,08,24,07,46,13.20
2014,08,24,07,47,13.20
2014,08,24,07,48,13.30
2014,08,24,07,49,13.40
2014,08,24,07,50,13.40
2014,08,24,07,51,13.50
2014,08,24,07,52,13.60
2014,08,24,07,53,13.60
2014,08,24,07,54,13.70
2014,08,24,07,55,13.70
2014,08,24,07,56,13.80
2014,08,24,07,57,13.90
2014,08,24,07,58,13.90
2014,08,24,07,59,14.00
2014,08,24,08,00,14.10
2014,08,24,08,01,14.20
2014,08,24,08,02,14.30
2014,08,24,08,03,14.40
2014,08,24,08,04,14.50
2014,08,24,08,05,14.60
2014,08,24,08,06,14.70
2014,08,24,08,07,14.80
2014,08,24,08,08,14.90
2014,08,24,08,09,15.00
2014,08,24,08,10,15.00
2014,08,24,08,11,15.00
2014,08,24,08,12,15.10
2014,08,24,08,13,15.20
2014,08,24,08,14,15.30
2014,08,24,08,15,15.40
2014,08,24,08,16,15.50
2014,08,24,08,17,15.50
2014,08,24,08,18,15.60
2014,08,24,08,19,15.70
2014,08,24,08,20,15.80
2014,08,24,08,21,16.00
2014,08,24,08,22,16.00
2014,08,24,08,23,16.10
2014,08,24,08,24,16.30
2014,08,24,08,25,16.40
2014,08,24,08,26,16.60
2014,08,24,08,27,16.70
2014,08,24,08,28,16.80
2014,08,24,08,29,17.00
2014,08,24,08,30,17.10
2014,08,24,08,31,17.30
2014,08,24,08,32,17.40
2014,08,24,08,33,17.60
2014,08,24,08,34,17.70
2014,08,24,08,35,17.80
2014,08,24,08,36,17.90
2014,08,24,08,37,18.00
2014,08,24,08,38,18.10
2014,08,24,08,39,18.20
2014,08,24,08,40,18.30
2014,08,24,08,41,18.40
2014,08,24,08,42,18.50
2014,08,24,08,43,18.60
2014,08,24,08,44,18.70
2014,08,24,08,45,18.70
2014,08,24,08,46,18.80
2014,08,24,08,47,18.90
2014,08,24,08,48,18.90
2014,08,24,08,49,18.90
2014,08,24,08,50,19.00
2014,08,24,08,51,19.10
2014,08,24,08,52,19.10
2014,08,24,08,53,19.10
2014,08,24,08,54,19.20
2014,08,24,08,55,19.20
2014,08,24,08,56,19.30
2014,08,24,08,57,19.30
2014,08,24,08,58,19.40
2014,08,24,08,59,19.40
2014,08,24,09,00,19.50
2014,08,24,09,01,19.50
2014,08,24,09,02,19.60
2014,08,24,09,03,19.60
2014,08,24,09,04,19.70
2014,08,24,09,05,19.70
2014,08,24,09,06,19.70
2014,08,24,09,07,19.70
2014,08,24,09,08,19.80
2014,08,24,09,09,19.80
2014,08,24,09,10,19.90
2014,08,24,09,11,19.90
2014,08,24,09,12,19.90
2014,08,24,09,13,19.90
2014,08,24,09,14,19.90
2014,08,24,09,15,19.90
2014,08,24,09,16,19.90
2014,08,24,09,17,19.90
2014,08,24,09,18,19.90
2014,08,24,09,19,19.90
2014,08,24,09,20,19.90
2014,08,24,09,21,19.90
2014,08,24,09,22,19.80
2014,08,24,09,23,19.80
2014,08,24,09,24,19.90
2014,08,24,09,25,19.90
2014,08,24,09,26,19.90
2014,08,24,09,27,20.00
2014,08,24,09,28,20.00
2014,08,24,09,29,20.00
2014,08,24,09,30,20.10
2014,08,24,09,31,20.10
2014,08,24,09,32,20.10
2014,08,24,09,33,20.10
2014,08,24,09,34,20.10
2014,08,24,09,35,20.10
2014,08,24,09,36,20.20
2014,08,24,09,37,20.20
2014,08,24,09,38,20.20
2014,08,24,09,39,20.30
2014,08,24,09,40,20.30
2014,08,24,09,41,20.30
2014,08,24,09,42,20.40
2014,08,24,09,43,20.50
2014,08,24,09,44,20.50
2014,08,24,09,45,20.60
2014,08,24,09,46,20.60
2014,08,24,09,47,20.60
2014,08,24,09,48,20.60
2014,08,24,09,49,20.60
2014,08,24,09,50,20.60
2014,08,24,09,51,20.60
2014,08,24,09,52,20.60
2014,08,24,09,53,20.70
2014,08,24,09,54,20.70
2014,08,24,09,55,20.80
2014,08,24,09,56,20.80
2014,08,24,09,57,20.90
2014,08,24,09,58,21.10
2014,08,24,09,59,21.20
2014,08,24,10,00,21.30
2014,08,24,10,01,21.40
2014,08,24,10,02,21.40
2014,08,24,10,03,21.50
2014,08,24,10,04,21.50
2014,08,24,10,05,21.60
2014,08,24,10,06,21.50
2014,08,24,10,07,21.40
2014,08,24,10,08,21.40
2014,08,24,10,09,21.40
2014,08,24,10,10,21.30
2014,08,24,10,11,21.30
2014,08,24,10,12,21.40
2014,08,24,10,13,21.40
2014,08,24,10,14,21.40
2014,08,24,10,15,21.40
2014,08,24,10,16,21.40
2014,08,24,10,17,21.40
2014,08,24,10,18,21.40
2014,08,24,10,19,21.40
2014,08,24,10,20,21.40
2014,08,24,10,21,21.40
2014,08,24,10,22,21.40
2014,08,24,10,23,21.50
2014,08,24,10,24,21.40
2014,08,24,10,25,21.40
2014,08,24,10,26,21.40
2014,08,24,10,27,21.40
2014,08,24,10,28,21.40
2014,08,24,10,29,21.50
2014,08,24,10,30,21.60
2014,08,24,10,31,21.60
2014,08,24,10,32,21.70
2014,08,24,10,33,21.70
2014,08,24,10,34,21.70
2014,08,24,10,35,21.70
2014,08,24,10,36,21.70
2014,08,24,10,37,21.70
2014,08,24,10,38,21.70
2014,08,24,10,39,21.80
2014,08,24,10,40,21.80
2014,08,24,10,41,21.90
2014,08,24,10,42,22.00
2014,08,24,10,43,22.10
2014,08,24,10,44,22.20
2014,08,24,10,45,22.30
2014,08,24,10,46,22.30
2014,08,24,10,47,22.40
2014,08,24,10,48,22.40
2014,08,24,10,49,22.50
2014,08,24,10,50,22.50
2014,08,24,10,51,22.50
2014,08,24,10,52,22.40
2014,08,24,10,53,22.40
2014,08,24,10,54,22.40
2014,08,24,10,55,22.40
2014,08,24,10,56,22.40
2014,08,24,10,57,22.30
2014,08,24,10,58,22.20
2014,08,24,10,59,22.20
2014,08,24,11,00,22.20
2014,08,24,11,01,22.20
2014,08,24,11,02,22.20
2014,08,24,11,03,22.20
2014,08,24,11,04,22.20
2014,08,24,11,05,22.20
2014,08,24,11,06,22.20
2014,08,24,11,07,22.20
2014,08,24,11,08,22.20
2014,08,24,11,09,22.30
2014,08,24,11,10,22.30
2014,08,24,11,11,22.40
2014,08,24,11,12,22.40
2014,08,24,11,13,22.50
2014,08,24,11,14,22.40
2014,08,24,11,15,22.40
2014,08,24,11,16,22.30
2014,08,24,11,17,22.20
2014,08,24,11,18,22.10
2014,08,24,11,19,21.90
2014,08,24,11,20,21.90
2014,08,24,11,21,21.80
2014,08,24,11,22,21.70
2014,08,24,11,23,21.70
2014,08,24,11,24,21.60
2014,08,24,11,25,21.60
2014,08,24,11,26,21.50
2014,08,24,11,27,21.50
2014,08,24,11,28,21.60
2014,08,24,11,29,21.60
2014,08,24,11,30,21.70
2014,08,24,11,31,21.80
2014,08,24,11,32,21.90
2014,08,24,11,33,22.00
2014,08,24,11,34,22.10
2014,08,24,11,35,22.20
2014,08,24,11,36,22.30
2014,08,24,11,37,22.40
2014,08,24,11,38,22.40
2014,08,24,11,39,22.40
2014,08,24,11,40,22.40
2014,08,24,11,41,22.50
2014,08,24,11,42,22.60
2014,08,24,11,43,22.70
2014,08,24,11,44,22.70
2014,08,24,11,45,22.70
2014,08,24,11,46,22.70
2014,08,24,11,47,22.60
2014,08,24,11,48,22.60
2014,08,24,11,49,22.60
2014,08,24,11,50,22.50
2014,08,24,11,51,22.50
2014,08,24,11,52,22.50
2014,08,24,11,53,22.60
2014,08,24,11,54,22.60
2014,08,24,11,55,22.60
2014,08,24,11,56,22.70
2014,08,24,11,57,22.80
2014,08,24,11,58,22.70
2014,08,24,11,59,22.70
2014,08,24,12,00,22.60
2014,08,24,12,01,22.50
2014,08,24,12,02,22.40
2014,08,24,12,03,22.30
2014,08,24,12,04,22.20
2014,08,24,12,05,22.20
2014,08,24,12,06,22.30
2014,08,24,12,07,22.40
2014,08,24,12,08,22.60
2014,08,24,12,09,22.80
2014,08,24,12,10,22.90
2014,08,24,12,11,22.90
2014,08,24,12,12,22.90
2014,08,24,12,13,22.90
2014,08,24,12,14,22.80
2014,08,24,12,15,22.80
2014,08,24,12,16,22.70
2014,08,24,12,17,22.70
2014,08,24,12,18,22.80
2014,08,24,12,19,22.90
2014,08,24,12,20,23.00
2014,08,24,12,21,23.20
2014,08,24,12,22,23.40
2014,08,24,12,23,23.50
2014,08,24,12,24,23.60
2014,08,24,12,25,23.60
2014,08,24,12,26,23.70
2014,08,24,12,27,23.70
2014,08,24,12,28,23.80
2014,08,24,12,29,23.90
2014,08,24,12,30,24.00
2014,08,24,12,31,24.00
2014,08,24,12,32,24.00
2014,08,24,12,33,24.00
2014,08,24,12,34,24.10
2014,08,24,12,35,24.10
2014,08,24,12,36,24.10
2014,08,24,12,37,24.20
2014,08,24,12,38,24.20
2014,08,24,12,39,24.10
2014,08,24,12,40,23.90
2014,08,24,12,41,23.80
2014,08,24,12,42,23.60
2014,08,24,12,43,23.60
2014,08,24,12,44,23.60
2014,08,24,12,45,23.60
2014,08,24,12,46,23.70
2014,08,24,12,47,23.60
2014,08,24,12,48,23.60
2014,08,24,12,49,23.60
2014,08,24,12,50,23.60
2014,08,24,12,51,23.60
2014,08,24,12,52,23.60
2014,08,24,12,53,23.50
2014,08,24,12,54,23.40
2014,08,24,12,55,23.50
2014,08,24,12,56,23.60
2014,08,24,12,57,23.70
2014,08,24,12,58,23.90
2014,08,24,12,59,24.00
2014,08,24,13,00,24.10
2014,08,24,13,01,24.10
2014,08,24,13,02,24.10
2014,08,24,13,03,24.20
2014,08,24,13,04,24.20
2014,08,24,13,05,24.20
2014,08,24,13,06,24.30
2014,08,24,13,07,24.30
2014,08,24,13,08,24.30
2014,08,24,13,09,24.20
2014,08,24,13,10,24.30
2014,08,24,13,11,24.40
2014,08,24,13,12,24.50
2014,08,24,13,13,24.70
2014,08,24,13,14,24.80
2014,08,24,13,15,25.00
2014,08,24,13,16,25.10
2014,08,24,13,17,25.20
2014,08,24,13,18,25.40
2014,08,24,13,19,25.60
2014,08,24,13,20,25.70
2014,08,24,13,21,25.70
2014,08,24,13,22,25.70
2014,08,24,13,23,25.70
2014,08,24,13,24,25.80
2014,08,24,13,25,25.80
2014,08,24,13,26,25.80
2014,08,24,13,27,25.80
2014,08,24,13,28,25.90
2014,08,24,13,29,25.80
2014,08,24,13,30,25.80
2014,08,24,13,31,25.80
2014,08,24,13,32,25.80
2014,08,24,13,33,25.80
2014,08,24,13,34,25.90
2014,08,24,13,35,25.90
2014,08,24,13,36,25.90
2014,08,24,13,37,25.90
2014,08,24,13,38,25.90
2014,08,24,13,39,25.80
2014,08,24,13,40,25.90
2014,08,24,13,41,25.90
2014,08,24,13,42,25.90
2014,08,24,13,43,25.90
2014,08,24,13,44,25.80
2014,08,24,13,45,25.70
2014,08,24,13,46,25.70
2014,08,24,13,47,25.70
2014,08,24,13,48,25.70
2014,08,24,13,49,25.80
2014,08,24,13,50,25.90
2014,08,24,13,51,25.90
2014,08,24,13,52,25.90
2014,08,24,13,53,25.90
2014,08,24,13,54,26.00
2014,08,24,13,55,26.00
2014,08,24,13,56,26.10
2014,08,24,13,57,26.20
2014,08,24,13,58,26.30
2014,08,24,13,59,26.30
2014,08,24,14,00,26.30
2014,08,24,14,01,26.20
2014,08,24,14,02,26.20
2014,08,24,14,03,26.30
2014,08,24,14,04,26.30
2014,08,24,14,05,26.30
2014,08,24,14,06,26.40
2014,08,24,14,07,26.40
2014,08,24,14,08,26.40
2014,08,24,14,09,26.50
2014,08,24,14,10,26.50
2014,08,24,14,11,26.60
2014,08,24,14,12,26.60
2014,08,24,14,13,26.60
2014,08,24,14,14,26.70
2014,08,24,14,15,26.70
2014,08,24,14,16,26.80
2014,08,24,14,17,26.80
2014,08,24,14,18,26.90
2014,08,24,14,19,27.00
2014,08,24,14,20,27.00
2014,08,24,14,21,27.00
2014,08,24,14,22,26.90
2014,08,24,14,23,26.80
2014,08,24,14,24,26.80
2014,08,24,14,25,26.80
2014,08,24,14,26,26.70
2014,08,24,14,27,26.70
2014,08,24,14,28,26.70
2014,08,24,14,29,26.70
2014,08,24,14,30,26.70
2014,08,24,14,31,26.70
2014,08,24,14,32,26.70
2014,08,24,14,33,26.70
2014,08,24,14,34,26.70
2014,08,24,14,35,26.60
2014,08,24,14,36,26.40
2014,08,24,14,37,26.30
2014,08,24,14,38,26.30
2014,08,24,14,39,26.20
2014,08,24,14,40,26.20
2014,08,24,14,41,26.20
2014,08,24,14,42,26.10
2014,08,24,14,43,26.00
2014,08,24,14,44,26.00
2014,08,24,14,45,25.90
2014,08,24,14,46,25.90
2014,08,24,14,47,25.90
2014,08,24,14,48,25.90
2014,08,24,14,49,25.90
2014,08,24,14,50,26.00
2014,08,24,14,51,26.10
2014,08,24,14,52,26.10
2014,08,24,14,53,26.20
2014,08,24,14,54,26.20
2014,08,24,14,55,26.20
2014,08,24,14,56,26.00
2014,08,24,14,57,25.80
2014,08,24,14,58,25.80
2014,08,24,14,59,25.80
2014,08,24,15,00,25.90
2014,08,24,15,01,26.00
2014,08,24,15,02,26.00
2014,08,24,15,03,26.00
2014,08,24,15,04,26.00
2014,08,24,15,05,25.90
2014,08,24,15,06,25.70
2014,08,24,15,07,25.60
2014,08,24,15,08,25.60
2014,08,24,15,09,25.60
2014,08,24,15,10,25.70
2014,08,24,15,11,25.80
2014,08,24,15,12,25.80
2014,08,24,15,13,25.80
2014,08,24,15,14,25.80
2014,08,24,15,15,25.80
2014,08,24,15,16,25.90
2014,08,24,15,17,25.90
2014,08,24,15,18,25.90
2014,08,24,15,19,25.90
2014,08,24,15,20,25.90
2014,08,24,15,21,26.00
2014,08,24,15,22,26.10
2014,08,24,15,23,26.20
2014,08,24,15,24,26.40
2014,08,24,15,25,26.50
2014,08,24,15,26,26.60
2014,08,24,15,27,26.70
2014,08,24,15,28,26.60
2014,08,24,15,29,26.60
2014,08,24,15,30,26.50
2014,08,24,15,31,26.40
2014,08,24,15,32,26.30
2014,08,24,15,33,26.20
2014,08,24,15,34,26.20
2014,08,24,15,35,26.20
2014,08,24,15,36,26.20
2014,08,24,15,37,26.30
2014,08,24,15,38,26.30
2014,08,24,15,39,26.30
2014,08,24,15,40,26.40
2014,08,24,15,41,26.40
2014,08,24,15,42,26.60
2014,08,24,15,43,26.70
2014,08,24,15,44,26.90
2014,08,24,15,45,27.10
2014,08,24,15,46,27.20
2014,08,24,15,47,27.20
2014,08,24,15,48,27.30
2014,08,24,15,49,27.20
2014,08,24,15,50,27.20
2014,08,24,15,51,27.10
2014,08,24,15,52,27.00
2014,08,24,15,53,26.80
2014,08,24,15,54,26.70
2014,08,24,15,55,26.50
2014,08,24,15,56,26.40
2014,08,24,15,57,26.40
2014,08,24,15,58,26.40
2014,08,24,15,59,26.40
2014,08,24,16,00,26.40
2014,08,24,16,01,26.30
2014,08,24,16,02,26.20
2014,08,24,16,03,26.30
2014,08,24,16,04,26.30
2014,08,24,16,05,26.40
2014,08,24,16,06,26.50
2014,08,24,16,07,26.70
2014,08,24,16,08,26.80
2014,08,24,16,09,26.90
2014,08,24,16,10,26.90
2014,08,24,16,11,27.00
2014,08,24,16,12,27.10
2014,08,24,16,13,27.20
2014,08,24,16,14,27.20
2014,08,24,16,15,27.30
2014,08,24,16,16,27.30
2014,08,24,16,17,27.40
2014,08,24,16,18,27.40
2014,08,24,16,19,27.50
2014,08,24,16,20,27.50
2014,08,24,16,21,27.30
2014,08,24,16,22,27.20
2014,08,24,16,23,27.20
2014,08,24,16,24,27.10
2014,08,24,16,25,27.10
2014,08,24,16,26,27.10
2014,08,24,16,27,27.10
2014,08,24,16,28,27.10
2014,08,24,16,29,27.10
2014,08,24,16,30,27.10
2014,08,24,16,31,27.20
2014,08,24,16,32,27.30
2014,08,24,16,33,27.30
2014,08,24,16,34,27.40
2014,08,24,16,35,27.40
2014,08,24,16,36,27.50
2014,08,24,16,37,27.50
2014,08,24,16,38,27.60
2014,08,24,16,39,27.60
2014,08,24,16,40,27.60
2014,08,24,16,41,27.60
2014,08,24,16,42,27.50
2014,08,24,16,43,27.40
2014,08,24,16,44,27.20
2014,08,24,16,45,27.20
2014,08,24,16,46,27.10
2014,08,24,16,47,27.00
2014,08,24,16,48,26.90
2014,08,24,16,49,26.90
2014,08,24,16,50,26.90
2014,08,24,16,51,27.00
2014,08,24,16,52,27.10
2014,08,24,16,53,27.20
2014,08,24,16,54,27.20
2014,08,24,16,55,27.10
2014,08,24,16,56,27.00
2014,08,24,16,57,26.90
2014,08,24,16,58,26.90
2014,08,24,16,59,26.80
2014,08,24,17,00,26.90
2014,08,24,17,01,27.00
2014,08,24,17,02,27.10
2014,08,24,17,03,27.10
2014,08,24,17,04,27.10
2014,08,24,17,05,27.10
2014,08,24,17,06,27.20
2014,08,24,17,07,27.20
2014,08,24,17,08,27.10
2014,08,24,17,09,26.90
2014,08,24,17,10,26.90
2014,08,24,17,11,26.90
2014,08,24,17,12,26.90
2014,08,24,17,13,27.00
2014,08,24,17,14,27.00
2014,08,24,17,15,27.10
2014,08,24,17,16,27.10
2014,08,24,17,17,27.10
2014,08,24,17,18,27.10
2014,08,24,17,19,27.10